Time,TemperatureF,DewpointF,PressureIn,WindDirection,WindDirectionDegrees,WindSpeedMPH,WindSpeedGustMPH,Humidity,HourlyPrecipIn,Conditions,Clouds,dailyrainin,SoftwareType,DateUTC
2013-01-25 00:00:00,15.4,-1.2,30.62,WNW,292,0.0,0.0,47,0.00,,---,0.00,VWS V14.01,2013-01-25 05:00:00,
2013-01-25 00:01:00,15.4,-1.2,30.62,WSW,248,0.0,0.0,47,0.00,,---,0.00,VWS V14.01,2013-01-25 05:01:00,
2013-01-25 00:06:00,15.8,-0.9,30.62,SSW,202,0.0,0.0,47,0.00,,---,0.00,VWS V14.01,2013-01-25 05:06:00,
2013-01-25 00:11:00,15.6,-1.0,30.62,SSE,158,0.0,0.0,47,0.00,,---,0.00,VWS V14.01,2013-01-25 05:11:00,
2013-01-25 00:16:00,15.3,-1.3,30.62,SSE,158,0.0,0.0,47,0.00,,---,0.00,VWS V14.01,2013-01-25 05:16:00,
2013-01-25 00:21:00,15.4,-1.2,30.62,SSE,158,0.0,0.0,47,0.00,,---,0.00,VWS V14.01,2013-01-25 05:21:00,
2013-01-25 00:26:00,15.3,-1.3,30.62,SSE,158,0.0,0.0,47,0.00,,---,0.00,VWS V14.01,2013-01-25 05:26:00,
2013-01-25 00:31:00,15.3,-1.3,30.62,SSE,158,0.0,0.0,47,0.00,,---,0.00,VWS V14.01,2013-01-25 05:31:00,
2013-01-25 00:36:00,15.6,-1.0,30.62,ESE,112,0.0,0.0,47,0.00,,---,0.00,VWS V14.01,2013-01-25 05:36:00,
2013-01-25 00:41:00,15.4,-1.2,30.62,ESE,112,0.0,0.0,47,0.00,,---,0.00,VWS V14.01,2013-01-25 05:41:00,
2013-01-25 00:46:00,15.4,-1.2,30.62,ESE,112,0.0,0.0,47,0.00,,---,0.00,VWS V14.01,2013-01-25 05:46:00,
2013-01-25 00:51:00,15.6,-1.0,30.62,ESE,112,0.0,0.0,47,0.00,,---,0.00,VWS V14.01,2013-01-25 05:51:00,
2013-01-25 00:56:00,15.8,-0.9,30.62,ESE,112,0.9,0.9,47,0.00,,---,0.00,VWS V14.01,2013-01-25 05:56:00,
2013-01-25 01:01:00,16.2,-0.5,30.62,ESE,112,0.0,0.0,47,0.00,,---,0.00,VWS V14.01,2013-01-25 06:01:00,
2013-01-25 01:06:00,16.2,-0.5,30.62,ESE,112,0.0,0.0,47,0.00,,---,0.00,VWS V14.01,2013-01-25 06:06:00,
2013-01-25 01:11:00,16.5,-0.2,30.62,WSW,248,2.2,2.2,47,0.00,,---,0.00,VWS V14.01,2013-01-25 06:11:00,
2013-01-25 01:16:00,16.9,0.2,30.62,West,270,1.6,3.1,47,0.00,,---,0.00,VWS V14.01,2013-01-25 06:16:00,
2013-01-25 01:21:00,17.2,0.0,30.62,SE,135,0.0,0.0,46,0.00,,---,0.00,VWS V14.01,2013-01-25 06:21:00,
2013-01-25 01:26:00,17.8,0.1,30.62,ESE,112,1.1,2.0,45,0.00,,---,0.00,VWS V14.01,2013-01-25 06:26:00,
2013-01-25 01:31:00,17.4,0.2,30.62,ESE,112,0.0,0.0,46,0.00,,---,0.00,VWS V14.01,2013-01-25 06:31:00,
2013-01-25 01:36:00,17.4,0.2,30.62,East,90,0.0,0.0,46,0.00,,---,0.00,VWS V14.01,2013-01-25 06:36:00,
2013-01-25 01:41:00,17.6,-0.1,30.62,East,90,0.0,2.7,45,0.00,,---,0.00,VWS V14.01,2013-01-25 06:41:00,
2013-01-25 01:46:00,17.8,0.1,30.62,ESE,112,0.9,2.2,45,0.00,,---,0.00,VWS V14.01,2013-01-25 06:46:00,
2013-01-25 01:51:00,17.6,-0.1,30.62,ESE,112,0.0,0.0,45,0.00,,---,0.00,VWS V14.01,2013-01-25 06:51:00,
2013-01-25 01:56:00,17.1,-0.6,30.62,SW,225,1.3,1.3,45,0.00,,---,0.00,VWS V14.01,2013-01-25 06:56:00,
2013-01-25 02:01:00,17.1,-0.6,30.62,SE,135,0.0,0.0,45,0.00,,---,0.00,VWS V14.01,2013-01-25 07:01:00,
2013-01-25 02:06:00,17.1,-0.6,30.62,SE,135,0.0,0.0,45,0.00,,---,0.00,VWS V14.01,2013-01-25 07:06:00,
2013-01-25 02:11:00,16.7,-0.9,30.62,SE,135,0.0,0.0,45,0.00,,---,0.00,VWS V14.01,2013-01-25 07:11:00,
2013-01-25 02:16:00,16.5,-1.1,30.62,SE,135,0.0,0.0,45,0.00,,---,0.00,VWS V14.01,2013-01-25 07:16:00,
2013-01-25 02:21:00,16.3,-1.3,30.62,SE,135,0.0,0.0,45,0.00,,---,0.00,VWS V14.01,2013-01-25 07:21:00,
2013-01-25 02:26:00,16.2,-1.4,30.62,SE,135,0.0,0.0,45,0.00,,---,0.00,VWS V14.01,2013-01-25 07:26:00,
2013-01-25 02:31:00,16.0,-1.6,30.62,SE,135,0.0,0.0,45,0.00,,---,0.00,VWS V14.01,2013-01-25 07:31:00,
2013-01-25 02:36:00,16.0,-1.6,30.62,SSE,158,2.2,2.2,45,0.00,,---,0.00,VWS V14.01,2013-01-25 07:36:00,
2013-01-25 02:41:00,16.0,-1.6,30.62,SSE,158,0.0,0.0,45,0.00,,---,0.00,VWS V14.01,2013-01-25 07:41:00,
2013-01-25 02:46:00,15.4,-2.1,30.62,SSE,158,0.0,0.0,45,0.00,,---,0.00,VWS V14.01,2013-01-25 07:46:00,
2013-01-25 02:51:00,15.6,-1.5,30.62,South,180,0.0,0.0,46,0.00,,---,0.00,VWS V14.01,2013-01-25 07:51:00,
2013-01-25 02:56:00,15.3,-1.8,30.62,South,180,0.0,0.0,46,0.00,,---,0.00,VWS V14.01,2013-01-25 07:56:00,
2013-01-25 03:01:00,15.3,-1.8,30.62,South,180,0.0,0.0,46,0.00,,---,0.00,VWS V14.01,2013-01-25 08:01:00,
2013-01-25 03:06:00,15.1,-2.0,30.62,South,180,0.0,0.0,46,0.00,,---,0.00,VWS V14.01,2013-01-25 08:06:00,
2013-01-25 03:11:00,15.1,-2.0,30.62,South,180,0.0,0.0,46,0.00,,---,0.00,VWS V14.01,2013-01-25 08:11:00,
2013-01-25 03:16:00,14.9,-2.1,30.62,SSW,202,0.0,0.0,46,0.00,,---,0.00,VWS V14.01,2013-01-25 08:16:00,
2013-01-25 03:21:00,15.1,-2.0,30.62,SSW,202,0.0,0.0,46,0.00,,---,0.00,VWS V14.01,2013-01-25 08:21:00,
2013-01-25 03:26:00,14.5,-2.5,30.62,SSW,202,0.0,0.0,46,0.00,,---,0.00,VWS V14.01,2013-01-25 08:26:00,
2013-01-25 03:31:00,14.7,-2.3,30.62,SSE,158,0.0,0.0,46,0.00,,---,0.00,VWS V14.01,2013-01-25 08:31:00,
2013-01-25 03:36:00,15.1,-2.0,30.62,SE,135,0.0,0.0,46,0.00,,---,0.00,VWS V14.01,2013-01-25 08:36:00,
2013-01-25 03:41:00,15.3,-1.3,30.62,SSE,158,1.1,1.1,47,0.00,,---,0.00,VWS V14.01,2013-01-25 08:41:00,
2013-01-25 03:46:00,15.3,-1.3,30.59,SSE,158,0.0,0.0,47,0.00,,---,0.00,VWS V14.01,2013-01-25 08:46:00,
2013-01-25 03:51:00,14.9,-1.7,30.59,SSE,158,0.0,0.0,47,0.00,,---,0.00,VWS V14.01,2013-01-25 08:51:00,
2013-01-25 03:56:00,15.1,-1.5,30.59,SSE,158,0.0,0.0,47,0.00,,---,0.00,VWS V14.01,2013-01-25 08:56:00,
2013-01-25 04:01:00,15.3,-1.3,30.62,SSE,158,0.0,0.0,47,0.00,,---,0.00,VWS V14.01,2013-01-25 09:01:00,
2013-01-25 04:06:00,15.3,-1.3,30.62,SE,135,1.3,1.6,47,0.00,,---,0.00,VWS V14.01,2013-01-25 09:06:00,
2013-01-25 04:11:00,15.3,-1.3,30.62,SE,135,0.0,0.0,47,0.00,,---,0.00,VWS V14.01,2013-01-25 09:11:00,
2013-01-25 04:16:00,15.3,-1.8,30.56,WSW,248,0.0,0.0,46,0.00,,---,0.00,VWS V14.01,2013-01-25 09:16:00,
2013-01-25 04:21:00,15.4,-1.6,30.56,SSE,158,0.0,0.0,46,0.00,,---,0.00,VWS V14.01,2013-01-25 09:21:00,
2013-01-25 04:26:00,15.6,-1.0,30.56,SSE,158,0.0,0.0,47,0.00,,---,0.00,VWS V14.01,2013-01-25 09:26:00,
2013-01-25 04:31:00,15.4,-1.2,30.59,SSE,158,0.0,0.0,47,0.00,,---,0.00,VWS V14.01,2013-01-25 09:31:00,
2013-01-25 04:36:00,15.3,-1.3,30.59,SSE,158,0.0,0.0,47,0.00,,---,0.00,VWS V14.01,2013-01-25 09:36:00,
2013-01-25 04:41:00,15.4,-1.2,30.59,SSE,158,0.0,0.0,47,0.00,,---,0.00,VWS V14.01,2013-01-25 09:41:00,
2013-01-25 04:45:00,15.6,-1.0,30.59,SSE,158,0.0,0.0,47,0.00,,---,0.00,VWS V14.01,2013-01-25 09:45:00,
2013-01-25 04:46:00,15.6,-1.0,30.59,SSE,158,0.0,0.0,47,0.00,,---,0.00,VWS V14.01,2013-01-25 09:46:00,
2013-01-25 04:50:00,15.6,-1.0,30.59,SSE,158,0.0,0.0,47,0.00,,---,0.00,VWS V14.01,2013-01-25 09:50:00,
2013-01-25 04:55:00,15.8,-0.9,30.59,SSE,158,0.0,0.0,47,0.00,,---,0.00,VWS V14.01,2013-01-25 09:55:00,
2013-01-25 05:00:00,15.8,-0.9,30.59,SSE,158,0.0,0.0,47,0.00,,---,0.00,VWS V14.01,2013-01-25 10:00:00,
2013-01-25 05:05:00,16.0,-1.1,30.59,SE,135,0.0,0.0,46,0.00,,---,0.00,VWS V14.01,2013-01-25 10:05:00,
2013-01-25 05:10:00,16.0,-1.1,30.59,SE,135,0.0,0.0,46,0.00,,---,0.00,VWS V14.01,2013-01-25 10:10:00,
2013-01-25 05:15:00,16.2,-1.0,30.59,SE,135,0.0,0.0,46,0.00,,---,0.00,VWS V14.01,2013-01-25 10:15:00,
2013-01-25 05:20:00,16.2,-1.0,30.59,SE,135,0.0,0.0,46,0.00,,---,0.00,VWS V14.01,2013-01-25 10:20:00,
2013-01-25 05:25:00,16.3,-0.8,30.59,SE,135,0.0,0.0,46,0.00,,---,0.00,VWS V14.01,2013-01-25 10:25:00,
2013-01-25 05:30:00,16.5,-0.2,30.59,SE,135,0.0,0.0,47,0.00,,---,0.00,VWS V14.01,2013-01-25 10:30:00,
2013-01-25 05:35:00,16.2,-0.5,30.59,SE,135,0.0,0.0,47,0.00,,---,0.00,VWS V14.01,2013-01-25 10:35:00,
2013-01-25 05:40:00,16.5,-0.2,30.59,SE,135,0.0,0.0,47,0.00,,---,0.00,VWS V14.01,2013-01-25 10:40:00,
2013-01-25 05:45:00,16.2,-0.5,30.62,SE,135,0.0,0.0,47,0.00,,---,0.00,VWS V14.01,2013-01-25 10:45:00,
2013-01-25 05:50:00,16.2,-0.5,30.62,SE,135,0.0,0.0,47,0.00,,---,0.00,VWS V14.01,2013-01-25 10:50:00,
2013-01-25 05:55:00,16.5,-0.2,30.62,SE,135,0.0,0.0,47,0.00,,---,0.00,VWS V14.01,2013-01-25 10:55:00,
2013-01-25 06:00:00,16.5,-0.2,30.59,SE,135,0.0,0.0,47,0.00,,---,0.00,VWS V14.01,2013-01-25 11:00:00,
2013-01-25 06:05:00,16.5,-0.2,30.59,SE,135,0.0,0.0,47,0.00,,---,0.00,VWS V14.01,2013-01-25 11:05:00,
2013-01-25 06:10:00,16.5,-0.2,30.59,SE,135,0.0,0.0,47,0.00,,---,0.00,VWS V14.01,2013-01-25 11:10:00,
2013-01-25 06:15:00,16.9,0.2,30.62,SE,135,0.0,0.0,47,0.00,,---,0.00,VWS V14.01,2013-01-25 11:15:00,
2013-01-25 06:20:00,16.7,0.0,30.62,SE,135,0.0,0.0,47,0.00,,---,0.00,VWS V14.01,2013-01-25 11:20:00,
2013-01-25 06:25:00,16.9,0.2,30.62,SE,135,0.0,0.0,47,0.00,,---,0.00,VWS V14.01,2013-01-25 11:25:00,
2013-01-25 06:30:00,16.9,0.2,30.59,SE,135,0.0,0.0,47,0.00,,---,0.00,VWS V14.01,2013-01-25 11:30:00,
2013-01-25 06:35:00,16.9,0.6,30.59,SE,135,0.0,0.0,48,0.00,,---,0.00,VWS V14.01,2013-01-25 11:35:00,
2013-01-25 06:40:00,16.9,0.2,30.59,SE,135,0.0,0.0,47,0.00,,---,0.00,VWS V14.01,2013-01-25 11:40:00,
2013-01-25 06:45:00,17.4,1.1,30.56,SE,135,0.0,0.0,48,0.00,,---,0.00,VWS V14.01,2013-01-25 11:45:00,
2013-01-25 06:50:00,17.2,0.9,30.56,SE,135,0.0,0.0,48,0.00,,---,0.00,VWS V14.01,2013-01-25 11:50:00,
2013-01-25 06:55:00,17.2,0.9,30.56,SE,135,0.0,0.0,48,0.00,,---,0.00,VWS V14.01,2013-01-25 11:55:00,
2013-01-25 07:00:00,17.4,1.1,30.56,SE,135,0.0,0.0,48,0.00,,---,0.00,VWS V14.01,2013-01-25 12:00:00,
2013-01-25 07:05:00,17.4,1.1,30.56,SE,135,0.0,0.0,48,0.00,,---,0.00,VWS V14.01,2013-01-25 12:05:00,
2013-01-25 07:10:00,17.4,1.1,30.56,SE,135,0.0,0.0,48,0.00,,---,0.00,VWS V14.01,2013-01-25 12:10:00,
2013-01-25 07:15:00,17.6,1.3,30.56,SE,135,0.0,0.0,48,0.00,,---,0.00,VWS V14.01,2013-01-25 12:15:00,
2013-01-25 07:20:00,17.6,1.3,30.56,SE,135,0.0,0.0,48,0.00,,---,0.00,VWS V14.01,2013-01-25 12:20:00,
2013-01-25 07:25:00,17.8,1.4,30.56,SE,135,0.0,0.0,48,0.00,,---,0.00,VWS V14.01,2013-01-25 12:25:00,
2013-01-25 07:30:00,17.8,1.0,30.56,SE,135,0.0,0.0,47,0.00,,---,0.00,VWS V14.01,2013-01-25 12:30:00,
2013-01-25 07:35:00,18.0,1.1,30.56,SE,135,0.0,0.0,47,0.00,,---,0.00,VWS V14.01,2013-01-25 12:35:00,
2013-01-25 07:40:00,18.1,1.3,30.56,SE,135,0.0,0.0,47,0.00,,---,0.00,VWS V14.01,2013-01-25 12:40:00,
2013-01-25 07:45:00,18.3,1.5,30.53,SE,135,0.0,0.0,47,0.00,,---,0.00,VWS V14.01,2013-01-25 12:45:00,
2013-01-25 07:50:00,18.3,1.5,30.53,SE,135,0.0,0.0,47,0.00,,---,0.00,VWS V14.01,2013-01-25 12:50:00,
2013-01-25 07:55:00,18.5,1.6,30.53,SE,135,0.0,0.0,47,0.00,,---,0.00,VWS V14.01,2013-01-25 12:55:00,
2013-01-25 08:00:00,18.7,1.8,30.56,SE,135,0.0,0.0,47,0.00,,---,0.00,VWS V14.01,2013-01-25 13:00:00,
2013-01-25 08:05:00,19.0,2.1,30.56,SE,135,0.0,0.0,47,0.00,,---,0.00,VWS V14.01,2013-01-25 13:05:00,
2013-01-25 08:10:00,19.2,1.8,30.56,SE,135,0.0,0.0,46,0.00,,---,0.00,VWS V14.01,2013-01-25 13:10:00,
2013-01-25 08:15:00,19.6,2.2,30.56,SE,135,0.0,0.0,46,0.00,,---,0.00,VWS V14.01,2013-01-25 13:15:00,
2013-01-25 08:20:00,19.8,2.3,30.56,SE,135,0.0,0.0,46,0.00,,---,0.00,VWS V14.01,2013-01-25 13:20:00,
2013-01-25 08:25:00,20.1,2.7,30.56,SE,135,0.0,0.0,46,0.00,,---,0.00,VWS V14.01,2013-01-25 13:25:00,
2013-01-25 08:30:00,20.3,2.8,30.56,SE,135,0.0,0.0,46,0.00,,---,0.00,VWS V14.01,2013-01-25 13:30:00,
2013-01-25 08:35:00,20.3,2.8,30.56,SE,135,0.0,0.0,46,0.00,,---,0.00,VWS V14.01,2013-01-25 13:35:00,
2013-01-25 08:40:00,20.7,3.2,30.56,SE,135,0.0,0.0,46,0.00,,---,0.00,VWS V14.01,2013-01-25 13:40:00,
2013-01-25 08:45:00,20.8,2.9,30.56,NW,315,0.9,2.2,45,0.00,,---,0.00,VWS V14.01,2013-01-25 13:45:00,
2013-01-25 08:50:00,21.0,3.0,30.56,SW,225,0.0,0.0,45,0.00,,---,0.00,VWS V14.01,2013-01-25 13:50:00,
2013-01-25 08:55:00,21.4,2.9,30.56,SW,225,0.0,0.0,44,0.00,,---,0.00,VWS V14.01,2013-01-25 13:55:00,
2013-01-25 09:00:00,21.6,3.0,30.56,SW,225,0.0,0.0,44,0.00,,---,0.00,VWS V14.01,2013-01-25 14:00:00,
2013-01-25 09:05:00,21.9,3.4,30.56,NNW,338,1.3,1.3,44,0.00,,---,0.00,VWS V14.01,2013-01-25 14:05:00,
2013-01-25 09:10:00,21.9,3.4,30.56,NW,315,1.1,1.1,44,0.00,,---,0.00,VWS V14.01,2013-01-25 14:10:00,
2013-01-25 09:15:00,21.9,3.4,30.53,WNW,292,0.9,0.9,44,0.00,,---,0.00,VWS V14.01,2013-01-25 14:15:00,
2013-01-25 09:20:00,21.9,3.4,30.53,WSW,248,0.0,0.0,44,0.00,,---,0.00,VWS V14.01,2013-01-25 14:20:00,
2013-01-25 09:25:00,22.1,3.5,30.53,WNW,292,0.0,2.5,44,0.00,,---,0.00,VWS V14.01,2013-01-25 14:25:00,
2013-01-25 09:30:00,22.3,3.2,30.59,West,270,0.0,0.0,43,0.00,,---,0.00,VWS V14.01,2013-01-25 14:30:00,
2013-01-25 09:35:00,22.5,3.4,30.59,NNW,338,0.0,1.1,43,0.00,,---,0.00,VWS V14.01,2013-01-25 14:35:00,
2013-01-25 09:40:00,22.3,3.2,30.59,East,90,0.0,1.1,43,0.00,,---,0.00,VWS V14.01,2013-01-25 14:40:00,
2013-01-25 09:45:00,22.5,3.4,30.53,ENE,68,0.0,2.5,43,0.00,,---,0.00,VWS V14.01,2013-01-25 14:45:00,
2013-01-25 09:50:00,22.6,3.5,30.53,East,90,1.3,1.3,43,0.00,,---,0.00,VWS V14.01,2013-01-25 14:50:00,
2013-01-25 09:55:00,22.6,3.5,30.53,ENE,68,0.0,1.3,43,0.00,,---,0.00,VWS V14.01,2013-01-25 14:55:00,
2013-01-25 10:00:00,22.8,3.7,30.53,ENE,68,1.6,1.6,43,0.00,,---,0.00,VWS V14.01,2013-01-25 15:00:00,
2013-01-25 10:05:00,23.0,3.8,30.53,ESE,112,0.0,0.9,43,0.00,,---,0.00,VWS V14.01,2013-01-25 15:05:00,
2013-01-25 10:10:00,23.2,3.5,30.53,ENE,68,0.0,0.0,42,0.00,,---,0.00,VWS V14.01,2013-01-25 15:10:00,
2013-01-25 10:15:00,23.4,3.7,30.53,ENE,68,0.0,1.3,42,0.00,,---,0.00,VWS V14.01,2013-01-25 15:15:00,
2013-01-25 10:20:00,23.2,3.5,30.53,East,90,1.3,2.9,42,0.00,,---,0.00,VWS V14.01,2013-01-25 15:20:00,
2013-01-25 10:25:00,23.5,3.8,30.53,ESE,112,0.0,0.0,42,0.00,,---,0.00,VWS V14.01,2013-01-25 15:25:00,
2013-01-25 10:30:00,23.9,4.2,30.53,ENE,68,0.0,0.0,42,0.00,,---,0.00,VWS V14.01,2013-01-25 15:30:00,
2013-01-25 10:35:00,24.4,4.7,30.53,ENE,68,0.0,0.0,42,0.00,,---,0.00,VWS V14.01,2013-01-25 15:35:00,
2013-01-25 10:40:00,24.6,4.8,30.53,WNW,292,1.3,1.6,42,0.00,,---,0.00,VWS V14.01,2013-01-25 15:40:00,
2013-01-25 10:45:00,25.0,4.6,30.53,WNW,292,0.0,0.0,41,0.00,,---,0.00,VWS V14.01,2013-01-25 15:45:00,
2013-01-25 10:50:00,24.8,5.0,30.53,ESE,112,0.0,0.0,42,0.00,,---,0.00,VWS V14.01,2013-01-25 15:50:00,
2013-01-25 10:55:00,25.0,4.6,30.53,SSE,158,0.0,0.0,41,0.00,,---,0.00,VWS V14.01,2013-01-25 15:55:00,
2013-01-25 11:00:00,25.2,4.8,30.50,NW,315,1.3,2.0,41,0.00,,---,0.00,VWS V14.01,2013-01-25 16:00:00,
2013-01-25 11:05:00,25.0,4.6,30.50,ENE,68,1.6,2.9,41,0.00,,---,0.00,VWS V14.01,2013-01-25 16:05:00,
2013-01-25 11:10:00,24.8,3.9,30.50,ENE,68,0.0,0.9,40,0.00,,---,0.00,VWS V14.01,2013-01-25 16:10:00,
2013-01-25 11:15:00,25.0,4.1,30.53,NNW,338,0.0,0.0,40,0.00,,---,0.00,VWS V14.01,2013-01-25 16:15:00,
2013-01-25 11:20:00,25.0,4.1,30.53,East,90,0.0,0.9,40,0.00,,---,0.00,VWS V14.01,2013-01-25 16:20:00,
2013-01-25 11:25:00,25.3,4.4,30.53,East,90,0.0,0.0,40,0.00,,---,0.00,VWS V14.01,2013-01-25 16:25:00,
2013-01-25 11:30:00,25.3,4.4,30.50,South,180,0.0,1.3,40,0.00,,---,0.00,VWS V14.01,2013-01-25 16:30:00,
2013-01-25 11:35:00,25.5,4.6,30.50,ESE,112,0.0,0.0,40,0.00,,---,0.00,VWS V14.01,2013-01-25 16:35:00,
2013-01-25 11:40:00,25.7,4.2,30.50,ENE,68,0.0,0.0,39,0.00,,---,0.00,VWS V14.01,2013-01-25 16:40:00,
2013-01-25 11:45:00,25.9,4.9,30.50,ENE,68,0.0,0.0,40,0.00,,---,0.00,VWS V14.01,2013-01-25 16:45:00,
2013-01-25 11:50:00,26.1,5.1,30.50,WNW,292,0.0,0.0,40,0.00,,---,0.00,VWS V14.01,2013-01-25 16:50:00,
2013-01-25 11:55:00,26.1,4.5,30.50,WSW,248,0.0,0.0,39,0.00,,---,0.00,VWS V14.01,2013-01-25 16:55:00,
2013-01-25 12:00:00,26.2,4.7,30.50,SSE,158,0.0,1.1,39,0.00,,---,0.00,VWS V14.01,2013-01-25 17:00:00,
2013-01-25 12:05:00,26.4,4.8,30.50,SSE,158,0.0,0.0,39,0.00,,---,0.00,VWS V14.01,2013-01-25 17:05:00,
2013-01-25 12:10:00,26.1,4.5,30.50,SSE,158,0.0,0.0,39,0.00,,---,0.00,VWS V14.01,2013-01-25 17:10:00,
2013-01-25 12:15:00,25.5,3.5,30.47,SE,135,1.1,3.1,38,0.00,,---,0.00,VWS V14.01,2013-01-25 17:15:00,
2013-01-25 12:20:00,25.3,3.3,30.47,NNE,22,2.5,2.9,38,0.00,,---,0.00,VWS V14.01,2013-01-25 17:20:00,
2013-01-25 12:25:00,25.2,3.1,30.47,ENE,68,0.0,0.0,38,0.00,,---,0.00,VWS V14.01,2013-01-25 17:25:00,
2013-01-25 12:30:00,25.0,3.0,30.41,ENE,68,3.1,3.1,38,0.00,,---,0.00,VWS V14.01,2013-01-25 17:30:00,
2013-01-25 12:35:00,24.8,2.8,30.41,NE,45,1.3,3.8,38,0.00,,---,0.00,VWS V14.01,2013-01-25 17:35:00,
2013-01-25 12:40:00,24.8,2.8,30.41,ENE,68,0.9,2.0,38,0.00,,---,0.00,VWS V14.01,2013-01-25 17:40:00,
2013-01-25 12:45:00,25.0,3.0,30.44,NE,45,1.1,1.1,38,0.00,,---,0.00,VWS V14.01,2013-01-25 17:45:00,
2013-01-25 12:50:00,25.2,3.1,30.44,ENE,68,0.0,0.9,38,0.00,,---,0.00,VWS V14.01,2013-01-25 17:50:00,
2013-01-25 12:55:00,25.2,3.1,30.44,WSW,248,0.0,0.0,38,0.00,,---,0.00,VWS V14.01,2013-01-25 17:55:00,
2013-01-25 13:00:00,25.3,3.3,30.41,WSW,248,0.0,0.0,38,0.00,,---,0.00,VWS V14.01,2013-01-25 18:00:00,
2013-01-25 13:05:00,25.2,3.7,30.41,ENE,68,0.0,0.0,39,0.00,,---,0.00,VWS V14.01,2013-01-25 18:05:00,
2013-01-25 13:10:00,25.0,3.0,30.41,ENE,68,0.0,0.0,38,0.00,,---,0.00,VWS V14.01,2013-01-25 18:10:00,
2013-01-25 13:15:00,25.2,3.7,30.41,ENE,68,0.0,0.0,39,0.00,,---,0.00,VWS V14.01,2013-01-25 18:15:00,
2013-01-25 13:20:00,25.3,3.9,30.41,East,90,0.0,1.6,39,0.00,,---,0.00,VWS V14.01,2013-01-25 18:20:00,
2013-01-25 13:25:00,25.3,3.9,30.41,ENE,68,0.0,0.9,39,0.00,,---,0.00,VWS V14.01,2013-01-25 18:25:00,
2013-01-25 13:30:00,25.5,4.0,30.41,ENE,68,0.0,0.0,39,0.00,,---,0.00,VWS V14.01,2013-01-25 18:30:00,
2013-01-25 13:35:00,25.5,4.0,30.41,SE,135,1.1,2.0,39,0.00,,---,0.00,VWS V14.01,2013-01-25 18:35:00,
2013-01-25 13:40:00,25.5,4.0,30.41,ENE,68,0.0,0.0,39,0.00,,---,0.00,VWS V14.01,2013-01-25 18:40:00,
2013-01-25 13:45:00,25.3,3.3,30.36,SW,225,0.0,0.0,38,0.00,,---,0.00,VWS V14.01,2013-01-25 18:45:00,
2013-01-25 13:50:00,25.3,3.9,30.36,WSW,248,1.1,1.1,39,0.00,,---,0.00,VWS V14.01,2013-01-25 18:50:00,
2013-01-25 13:55:00,25.3,3.3,30.36,East,90,0.0,0.0,38,0.00,,---,0.00,VWS V14.01,2013-01-25 18:55:00,
2013-01-25 14:00:00,25.5,4.0,30.39,East,90,0.0,0.0,39,0.00,,---,0.00,VWS V14.01,2013-01-25 19:00:00,
2013-01-25 14:05:00,25.5,3.5,30.39,East,90,0.0,0.0,38,0.00,,---,0.00,VWS V14.01,2013-01-25 19:05:00,
2013-01-25 14:10:00,25.7,3.6,30.39,SE,135,0.0,0.0,38,0.00,,---,0.00,VWS V14.01,2013-01-25 19:10:00,
2013-01-25 14:15:00,25.9,3.8,30.36,SSE,158,0.0,0.0,38,0.00,,---,0.00,VWS V14.01,2013-01-25 19:15:00,
2013-01-25 14:20:00,25.9,3.8,30.36,SSE,158,0.0,0.0,38,0.00,,---,0.00,VWS V14.01,2013-01-25 19:20:00,
2013-01-25 14:25:00,25.7,3.6,30.36,SSE,158,0.0,0.0,38,0.00,,---,0.00,VWS V14.01,2013-01-25 19:25:00,
2013-01-25 14:30:00,25.7,3.6,30.33,SE,135,1.3,1.6,38,0.00,,---,0.00,VWS V14.01,2013-01-25 19:30:00,
2013-01-25 14:35:00,25.7,3.6,30.33,West,270,0.9,2.2,38,0.00,,---,0.00,VWS V14.01,2013-01-25 19:35:00,
2013-01-25 14:40:00,25.7,3.6,30.33,West,270,0.9,0.9,38,0.00,,---,0.00,VWS V14.01,2013-01-25 19:40:00,
2013-01-25 14:45:00,25.7,3.6,30.33,SSE,158,0.0,0.0,38,0.00,,---,0.00,VWS V14.01,2013-01-25 19:45:00,
2013-01-25 14:50:00,25.7,3.6,30.33,SSE,158,0.0,1.6,38,0.00,,---,0.00,VWS V14.01,2013-01-25 19:50:00,
2013-01-25 14:55:00,25.5,4.0,30.33,WNW,292,0.9,1.3,39,0.00,,---,0.00,VWS V14.01,2013-01-25 19:55:00,
2013-01-25 15:00:00,25.2,3.7,30.33,East,90,0.0,1.3,39,0.00,,---,0.00,VWS V14.01,2013-01-25 20:00:00,
2013-01-25 15:05:00,24.4,3.6,30.33,East,90,0.0,1.3,40,0.00,,---,0.00,VWS V14.01,2013-01-25 20:05:00,
2013-01-25 15:10:00,24.4,3.6,30.33,WSW,248,0.0,0.0,40,0.00,,---,0.00,VWS V14.01,2013-01-25 20:10:00,
2013-01-25 15:15:00,24.3,4.0,30.30,SSE,158,2.5,2.5,41,0.00,,---,0.00,VWS V14.01,2013-01-25 20:15:00,
2013-01-25 15:20:00,23.9,4.2,30.30,SSE,158,0.0,0.0,42,0.00,,---,0.00,VWS V14.01,2013-01-25 20:20:00,
2013-01-25 15:25:00,23.7,4.0,30.30,West,270,1.6,1.6,42,0.00,,---,0.00,VWS V14.01,2013-01-25 20:25:00,
2013-01-25 15:30:00,23.5,3.8,30.33,West,270,0.0,0.0,42,0.00,,---,0.00,VWS V14.01,2013-01-25 20:30:00,
2013-01-25 15:35:00,23.4,4.2,30.33,WSW,248,0.0,0.0,43,0.00,,---,0.00,VWS V14.01,2013-01-25 20:35:00,
2013-01-25 15:40:00,23.2,4.0,30.33,WSW,248,0.0,0.0,43,0.00,,---,0.00,VWS V14.01,2013-01-25 20:40:00,
2013-01-25 15:45:00,23.0,4.3,30.30,West,270,1.1,1.1,44,0.00,,---,0.00,VWS V14.01,2013-01-25 20:45:00,
2013-01-25 15:50:00,22.8,4.2,30.30,West,270,0.0,0.0,44,0.00,,---,0.00,VWS V14.01,2013-01-25 20:50:00,
2013-01-25 15:55:00,22.5,4.3,30.30,SSE,158,0.0,0.0,45,0.00,,---,0.00,VWS V14.01,2013-01-25 20:55:00,
2013-01-25 16:00:00,22.5,4.3,30.33,SSE,158,1.1,1.1,45,0.00,,---,0.00,VWS V14.01,2013-01-25 21:00:00,
2013-01-25 16:05:00,22.3,4.2,30.33,WNW,292,1.1,2.2,45,0.00,,---,0.00,VWS V14.01,2013-01-25 21:05:00,
2013-01-25 16:10:00,22.1,4.5,30.33,WNW,292,0.0,0.0,46,0.00,,---,0.00,VWS V14.01,2013-01-25 21:10:00,
2013-01-25 16:15:00,21.9,4.3,30.33,West,270,0.0,0.0,46,0.00,,---,0.00,VWS V14.01,2013-01-25 21:15:00,
2013-01-25 16:20:00,21.9,4.8,30.33,West,270,0.0,0.0,47,0.00,,---,0.00,VWS V14.01,2013-01-25 21:20:00,
2013-01-25 16:25:00,21.9,4.8,30.33,West,270,0.0,0.0,47,0.00,,---,0.00,VWS V14.01,2013-01-25 21:25:00,
2013-01-25 16:30:00,21.7,5.1,30.33,West,270,0.9,2.7,48,0.00,,---,0.00,VWS V14.01,2013-01-25 21:30:00,
2013-01-25 16:35:00,21.6,5.4,30.33,WNW,292,1.1,1.1,49,0.00,,---,0.00,VWS V14.01,2013-01-25 21:35:00,
2013-01-25 16:40:00,21.6,6.2,30.33,WNW,292,0.0,0.0,51,0.00,,---,0.00,VWS V14.01,2013-01-25 21:40:00,
2013-01-25 16:45:00,21.7,6.8,30.33,WNW,292,0.0,0.0,52,0.00,,---,0.00,VWS V14.01,2013-01-25 21:45:00,
2013-01-25 16:50:00,21.6,6.7,30.33,WNW,292,0.0,0.0,52,0.00,,---,0.00,VWS V14.01,2013-01-25 21:50:00,
2013-01-25 16:55:00,21.4,6.5,30.33,NNW,338,0.0,0.0,52,0.00,,---,0.00,VWS V14.01,2013-01-25 21:55:00,
2013-01-25 17:00:00,21.2,6.8,30.30,WNW,292,0.0,0.0,53,0.00,,---,0.00,VWS V14.01,2013-01-25 22:00:00,
2013-01-25 17:05:00,21.2,7.2,30.30,WNW,292,0.0,0.0,54,0.00,,---,0.00,VWS V14.01,2013-01-25 22:05:00,
2013-01-25 17:10:00,21.0,6.6,30.30,ESE,112,0.0,0.0,53,0.00,,---,0.00,VWS V14.01,2013-01-25 22:10:00,
2013-01-25 17:15:00,21.0,7.0,30.30,ESE,112,0.0,0.0,54,0.00,,---,0.00,VWS V14.01,2013-01-25 22:15:00,
2013-01-25 17:20:00,21.0,7.0,30.30,ESE,112,0.0,0.0,54,0.00,,---,0.00,VWS V14.01,2013-01-25 22:20:00,
2013-01-25 17:25:00,21.0,7.4,30.30,ESE,112,0.0,0.0,55,0.00,,---,0.00,VWS V14.01,2013-01-25 22:25:00,
2013-01-25 17:30:00,21.0,7.4,30.30,ESE,112,0.0,0.0,55,0.00,,---,0.00,VWS V14.01,2013-01-25 22:30:00,
2013-01-25 17:35:00,21.0,7.4,30.30,ESE,112,0.0,0.0,55,0.00,,---,0.00,VWS V14.01,2013-01-25 22:35:00,
2013-01-25 17:40:00,20.8,7.6,30.30,ESE,112,0.0,0.0,56,0.00,,---,0.00,VWS V14.01,2013-01-25 22:40:00,
2013-01-25 17:45:00,20.8,8.0,30.27,ESE,112,0.0,0.0,57,0.00,,---,0.00,VWS V14.01,2013-01-25 22:45:00,
2013-01-25 17:50:00,21.0,8.2,30.27,ESE,112,0.0,0.0,57,0.00,,---,0.00,VWS V14.01,2013-01-25 22:50:00,
2013-01-25 17:55:00,20.8,8.0,30.27,ESE,112,0.0,0.0,57,0.00,,---,0.00,VWS V14.01,2013-01-25 22:55:00,
2013-01-25 18:00:00,20.8,8.0,30.27,ESE,112,0.0,0.0,57,0.00,,---,0.00,VWS V14.01,2013-01-25 23:00:00,
2013-01-25 18:05:00,20.8,8.4,30.27,ESE,112,0.0,0.0,58,0.00,,---,0.00,VWS V14.01,2013-01-25 23:05:00,
2013-01-25 18:10:00,20.7,8.2,30.27,ESE,112,0.0,0.0,58,0.00,,---,0.00,VWS V14.01,2013-01-25 23:10:00,
2013-01-25 18:15:00,20.7,8.2,30.30,ESE,112,0.0,0.0,58,0.00,,---,0.00,VWS V14.01,2013-01-25 23:15:00,
2013-01-25 18:20:00,20.7,8.2,30.30,ESE,112,0.0,0.0,58,0.00,,---,0.00,VWS V14.01,2013-01-25 23:20:00,
2013-01-25 18:25:00,20.5,8.1,30.30,ESE,112,0.0,0.0,58,0.00,,---,0.00,VWS V14.01,2013-01-25 23:25:00,
2013-01-25 18:30:00,20.3,7.9,30.27,ESE,112,0.0,0.0,58,0.00,,---,0.00,VWS V14.01,2013-01-25 23:30:00,
2013-01-25 18:35:00,20.3,7.5,30.27,ESE,112,0.0,0.0,57,0.00,,---,0.00,VWS V14.01,2013-01-25 23:35:00,
2013-01-25 18:40:00,20.3,7.9,30.27,ESE,112,0.0,0.0,58,0.00,,---,0.00,VWS V14.01,2013-01-25 23:40:00,
2013-01-25 18:45:00,20.3,7.9,30.24,ESE,112,0.0,0.0,58,0.00,,---,0.00,VWS V14.01,2013-01-25 23:45:00,
2013-01-25 18:50:00,20.3,8.3,30.24,ESE,112,0.0,0.0,59,0.00,,---,0.00,VWS V14.01,2013-01-25 23:50:00,
2013-01-25 18:55:00,20.3,8.6,30.24,ESE,112,0.0,0.0,60,0.00,,---,0.00,VWS V14.01,2013-01-25 23:55:00,
2013-01-25 19:00:00,20.5,8.4,30.27,ESE,112,0.0,0.0,59,0.00,,---,0.00,VWS V14.01,2013-01-26 00:00:00,
2013-01-25 19:05:00,20.5,8.8,30.27,ESE,112,0.0,0.0,60,0.00,,---,0.00,VWS V14.01,2013-01-26 00:05:00,
2013-01-25 19:10:00,20.3,8.6,30.27,ESE,112,0.0,0.0,60,0.00,,---,0.00,VWS V14.01,2013-01-26 00:10:00,
2013-01-25 19:15:00,20.3,8.3,30.27,ESE,112,0.0,0.0,59,0.00,,---,0.00,VWS V14.01,2013-01-26 00:15:00,
2013-01-25 19:20:00,20.1,8.5,30.27,ESE,112,0.0,0.0,60,0.00,,---,0.00,VWS V14.01,2013-01-26 00:20:00,
2013-01-25 19:25:00,20.1,8.5,30.27,ESE,112,0.0,0.0,60,0.00,,---,0.00,VWS V14.01,2013-01-26 00:25:00,
2013-01-25 19:30:00,19.9,8.3,30.27,ESE,112,0.0,0.0,60,0.00,,---,0.00,VWS V14.01,2013-01-26 00:30:00,
2013-01-25 19:35:00,19.9,8.3,30.27,ESE,112,0.0,0.0,60,0.00,,---,0.00,VWS V14.01,2013-01-26 00:35:00,
2013-01-25 19:40:00,19.9,8.7,30.27,ESE,112,0.0,0.0,61,0.00,,---,0.00,VWS V14.01,2013-01-26 00:40:00,
2013-01-25 19:45:00,20.1,8.8,30.27,ESE,112,0.0,0.0,61,0.00,,---,0.00,VWS V14.01,2013-01-26 00:45:00,
2013-01-25 19:50:00,20.1,9.2,30.27,ESE,112,0.0,0.0,62,0.00,,---,0.00,VWS V14.01,2013-01-26 00:50:00,
2013-01-25 19:55:00,20.3,9.0,30.27,ESE,112,0.0,0.0,61,0.00,,---,0.00,VWS V14.01,2013-01-26 00:55:00,
2013-01-25 20:00:00,20.3,9.4,30.27,ESE,112,0.0,0.0,62,0.00,,---,0.00,VWS V14.01,2013-01-26 01:00:00,
2013-01-25 20:05:00,20.5,9.9,30.27,ESE,112,0.0,0.0,63,0.00,,---,0.00,VWS V14.01,2013-01-26 01:05:00,
2013-01-25 20:10:00,20.5,9.9,30.27,ESE,112,0.0,0.0,63,0.00,,---,0.00,VWS V14.01,2013-01-26 01:10:00,
2013-01-25 20:15:00,20.7,10.1,30.24,ESE,112,0.0,0.0,63,0.00,,---,0.00,VWS V14.01,2013-01-26 01:15:00,
2013-01-25 20:20:00,20.8,10.2,30.24,ESE,112,0.0,0.0,63,0.00,,---,0.00,VWS V14.01,2013-01-26 01:20:00,
2013-01-25 20:25:00,21.0,10.8,30.24,ESE,112,0.0,0.0,64,0.00,,---,0.00,VWS V14.01,2013-01-26 01:25:00,
2013-01-25 20:30:00,21.0,10.8,30.24,ESE,112,0.0,0.0,64,0.00,,---,0.00,VWS V14.01,2013-01-26 01:30:00,
2013-01-25 20:35:00,21.0,10.4,30.24,ESE,112,0.0,0.0,63,0.00,,---,0.00,VWS V14.01,2013-01-26 01:35:00,
2013-01-25 20:40:00,21.0,10.4,30.24,ESE,112,0.0,0.0,63,0.00,,---,0.00,VWS V14.01,2013-01-26 01:40:00,
2013-01-25 20:45:00,21.2,10.6,30.24,ESE,112,0.0,0.0,63,0.00,,---,0.00,VWS V14.01,2013-01-26 01:45:00,
2013-01-25 20:50:00,21.2,10.6,30.24,ESE,112,0.0,0.0,63,0.00,,---,0.00,VWS V14.01,2013-01-26 01:50:00,
2013-01-25 20:55:00,21.2,10.9,30.24,ESE,112,0.0,0.0,64,0.00,,---,0.00,VWS V14.01,2013-01-26 01:55:00,
2013-01-25 21:00:00,21.2,10.6,30.21,ESE,112,0.0,0.0,63,0.00,,---,0.00,VWS V14.01,2013-01-26 02:00:00,
2013-01-25 21:05:00,21.2,10.6,30.21,ESE,112,0.0,0.0,63,0.00,,---,0.00,VWS V14.01,2013-01-26 02:05:00,
2013-01-25 21:10:00,21.4,10.8,30.21,ESE,112,0.0,0.0,63,0.00,,---,0.00,VWS V14.01,2013-01-26 02:10:00,
2013-01-25 21:15:00,21.4,10.8,30.21,ESE,112,0.0,0.0,63,0.00,,---,0.00,VWS V14.01,2013-01-26 02:15:00,
2013-01-25 21:20:00,21.4,10.4,30.21,ESE,112,0.0,0.0,62,0.00,,---,0.00,VWS V14.01,2013-01-26 02:20:00,
2013-01-25 21:25:00,21.4,10.8,30.21,ESE,112,0.0,0.0,63,0.00,,---,0.00,VWS V14.01,2013-01-26 02:25:00,
2013-01-25 21:30:00,21.6,10.9,30.18,ESE,112,0.0,0.0,63,0.00,,---,0.00,VWS V14.01,2013-01-26 02:30:00,
2013-01-25 21:35:00,21.6,10.9,30.18,ESE,112,0.0,0.0,63,0.00,,---,0.00,VWS V14.01,2013-01-26 02:35:00,
2013-01-25 21:40:00,21.6,10.9,30.18,ESE,112,0.0,0.0,63,0.00,,---,0.00,VWS V14.01,2013-01-26 02:40:00,
2013-01-25 21:45:00,21.6,10.9,30.21,ESE,112,0.0,0.0,63,0.00,,---,0.00,VWS V14.01,2013-01-26 02:45:00,
2013-01-25 21:50:00,21.6,10.9,30.21,ESE,112,0.0,0.0,63,0.00,,---,0.00,VWS V14.01,2013-01-26 02:50:00,
2013-01-25 21:55:00,21.6,10.9,30.21,ESE,112,0.0,0.0,63,0.00,,---,0.00,VWS V14.01,2013-01-26 02:55:00,
2013-01-25 22:00:00,21.6,10.9,30.21,ESE,112,0.0,0.0,63,0.00,,---,0.00,VWS V14.01,2013-01-26 03:00:00,
2013-01-25 22:05:00,21.6,10.9,30.21,ESE,112,0.0,0.0,63,0.00,,---,0.00,VWS V14.01,2013-01-26 03:05:00,
2013-01-25 22:10:00,21.6,10.9,30.21,ESE,112,0.0,0.0,63,0.00,,---,0.00,VWS V14.01,2013-01-26 03:10:00,
2013-01-25 22:15:00,21.6,10.9,30.21,NNE,22,2.2,2.2,63,0.00,,---,0.00,VWS V14.01,2013-01-26 03:15:00,
2013-01-25 22:20:00,21.7,11.1,30.21,NNE,22,0.0,0.0,63,0.00,,---,0.00,VWS V14.01,2013-01-26 03:20:00,
2013-01-25 22:25:00,21.7,11.1,30.21,NNE,22,0.0,0.0,63,0.00,,---,0.00,VWS V14.01,2013-01-26 03:25:00,
2013-01-25 22:30:00,21.7,11.1,30.18,NNE,22,0.0,0.0,63,0.00,,---,0.00,VWS V14.01,2013-01-26 03:30:00,
2013-01-25 22:35:00,21.7,11.1,30.18,NNE,22,0.0,0.0,63,0.00,,---,0.00,VWS V14.01,2013-01-26 03:35:00,
2013-01-25 22:40:00,21.7,11.1,30.18,NNE,22,0.0,0.0,63,0.00,,---,0.00,VWS V14.01,2013-01-26 03:40:00,
2013-01-25 22:45:00,21.7,11.1,30.21,NNE,22,0.0,0.0,63,0.00,,---,0.00,VWS V14.01,2013-01-26 03:45:00,
2013-01-25 22:49:00,21.7,11.1,30.21,NNE,22,0.0,0.0,63,0.00,,---,0.00,VWS V14.01,2013-01-26 03:49:00,
2013-01-25 22:55:00,21.7,11.1,30.21,NNE,22,0.0,0.0,63,0.00,,---,0.00,VWS V14.01,2013-01-26 03:55:00,
2013-01-25 22:59:00,21.7,11.1,30.21,SE,135,0.0,1.6,63,0.00,,---,0.00,VWS V14.01,2013-01-26 03:59:00,
2013-01-25 23:04:00,21.7,11.1,30.21,SE,135,0.0,0.0,63,0.00,,---,0.00,VWS V14.01,2013-01-26 04:04:00,
2013-01-25 23:09:00,21.7,11.1,30.21,SE,135,2.0,2.0,63,0.00,,---,0.00,VWS V14.01,2013-01-26 04:09:00,
2013-01-25 23:14:00,21.7,11.1,30.21,SE,135,0.0,0.0,63,0.00,,---,0.00,VWS V14.01,2013-01-26 04:14:00,
2013-01-25 23:19:00,21.7,11.1,30.21,SE,135,0.0,1.1,63,0.00,,---,0.00,VWS V14.01,2013-01-26 04:19:00,
2013-01-25 23:24:00,21.9,11.6,30.21,SE,135,0.0,0.0,64,0.00,,---,0.00,VWS V14.01,2013-01-26 04:24:00,
2013-01-25 23:29:00,21.7,11.4,30.21,SE,135,0.0,0.0,64,0.00,,---,0.00,VWS V14.01,2013-01-26 04:29:00,
2013-01-25 23:34:00,21.7,11.4,30.21,ESE,112,0.0,0.0,64,0.00,,---,0.00,VWS V14.01,2013-01-26 04:34:00,
2013-01-25 23:39:00,21.7,11.4,30.21,ESE,112,0.0,0.0,64,0.00,,---,0.00,VWS V14.01,2013-01-26 04:39:00,
2013-01-25 23:44:00,21.7,11.4,30.18,ESE,112,0.0,0.0,64,0.00,,---,0.00,VWS V14.01,2013-01-26 04:44:00,
2013-01-25 23:49:00,21.7,11.4,30.18,ESE,112,0.0,1.3,64,0.00,,---,0.00,VWS V14.01,2013-01-26 04:49:00,
2013-01-25 23:54:00,21.7,11.4,30.18,NNE,22,0.0,0.0,64,0.00,,---,0.00,VWS V14.01,2013-01-26 04:54:00,
2013-01-25 23:59:00,21.7,11.4,30.21,NNE,22,0.0,0.0,64,0.00,,---,0.00,VWS V14.01,2013-01-26 04:59:00,